Location: Unspecified
(38.0989°N, 0.6729°W)
Time: 18:17:59
(UTC+01:00)

N. Korean satellite - Visible Passes

Search period start: 20 November 2017 00:00
Search period end: 30 November 2017 00:00
Orbit: 460 x 514 km, 97.2° (Epoch: 20 November)

Date Brightness Start Highest point End Pass type
(mag) Time Alt. Az. Time Alt. Az. Time Alt. Az.
20 Nov 9.4 07:08:56 10° NE 07:12:01 24° E 07:15:05 10° SSE visible
20 Nov 7.0 19:16:21 10° S 19:19:48 62° W 19:23:19 10° NNW visible
21 Nov 10.1 06:46:45 10° ENE 06:48:24 12° E 06:50:02 10° ESE visible
21 Nov 6.5 18:52:55 10° SSE 18:56:21 58° ENE 18:59:51 10° N visible
22 Nov 7.4 18:29:58 10° SE 18:32:58 27° ENE 18:36:02 10° NNE visible
22 Nov 9.7 20:04:31 10° SW 20:06:32 14° W 20:08:33 10° WNW visible
23 Nov 8.6 19:39:49 10° SSW 19:42:55 29° W 19:46:03 10° NW visible
24 Nov 9.4 07:08:31 10° NE 07:11:37 24° E 07:14:42 10° SSE visible
24 Nov 7.0 19:15:53 10° S 19:19:21 63° W 19:22:55 10° NNW visible
25 Nov 10.1 06:46:20 10° ENE 06:47:59 12° E 06:49:38 10° ESE visible
25 Nov 6.5 18:52:27 10° SSE 18:55:53 58° ENE 18:59:26 10° N visible
26 Nov 7.4 18:29:27 10° SE 18:32:30 28° ENE 18:35:37 10° NNE visible
26 Nov 9.7 20:04:00 10° SW 20:06:04 15° W 20:08:10 10° WNW visible
27 Nov 8.6 19:39:18 10° SSW 19:42:25 29° W 19:45:38 10° NW visible
28 Nov 9.4 07:08:04 10° NE 07:11:10 24° E 07:14:15 10° SSE visible
28 Nov 7.0 19:15:22 10° S 19:18:52 64° W 19:22:29 10° NNW visible
29 Nov 10.1 06:45:53 10° ENE 06:47:31 12° E 06:49:08 10° ESE visible
29 Nov 6.5 18:51:54 10° SSE 18:55:24 58° ENE 18:58:59 10° N visible
